Regional Weather Roundup
Issued by NWS Portland, ME

Home | Current Version | Previous Version | Text Only | Print | Product List | Glossary On
Versions: 1 2 3 4 5 6 7 8 9 10 11 12 13 14 15 16 17 18 19 20 21 22 23 24 25 26 27 28 29 30 31 32 33 34 35 36 37 38 39 40 41 42 43 44 45 46 47 48 49 50
000
ASUS41 KGYX 300510
RWRGYX
WEATHER ROUNDUP FOR MAINE AND NEW HAMPSHIRE
NATIONAL WEATHER SERVICE GRAY ME
100 AM EDT MON MAR 30 2015

MEZ002-005-006-010-012-015-018-020-021-024-026-027-029-300600-
MAINE

CITY           SKY/WX    TMP DP  RH WIND       PRES   REMARKS
PORTLAND       PTCLDY    32  25  75 MISG      30.03F
SANFORD        PTCLDY    28  16  59 SW5       30.03F
BAR HARBOR     CLEAR     27  27 100 S5        30.02F
WISCASSET      CLEAR     24  20  84 CALM      30.04S
ROCKLAND       CLEAR     34  27  75 SW7       30.02F
FRYEBURG       CLEAR     31   7  36 SW3       29.98F
LEWISTONAUBURN CLEAR     27  16  63 S6        30.00S
AUGUSTA        CLEAR     27  22  81 S7        30.00S
WATERVILLE     PTCLDY    27  19  74 CALM      29.97S
BANGOR         PTCLDY    28  18  66 S7        30.00F
GREENVILLE       N/A     27   8  44 S5        29.88F
MILLINOCKET    PTCLDY    22  14  71 CALM      29.96S
HOULTON        CLEAR     28   5  37 S5        29.93S
PRESQUE ISLE   CLEAR     28   5  37 S6        29.91S
FRENCHVILLE    PTCLDY    26   6  42 S8        29.83F
CARIBOU        PTCLDY    28   7  41 S5        29.88F
$$

NHZ002-005-008-009-011-012-014-300600-
NEW HAMPSHIRE

CITY           SKY/WX    TMP DP  RH WIND       PRES   REMARKS
PORTSMOUTH     MOCLDY    28  18  64 S3        30.03S
ROCHESTER      PTCLDY    26  14  60 CALM      30.02F
NASHUA         CLEAR     26  16  66 CALM      30.04F
MANCHESTER     MOCLDY    29  14  53 S3        30.02F
CONCORD        CLEAR     25  18  74 CALM      30.02F
LACONIA        CLEAR     28  10  47 SW3       29.97F
PLYMOUTH       FAIR      23  22  93 CALM      30.00S
BERLIN         PTCLDY    23  13  65 CALM      29.92F
WHITEFIELD     PTCLDY    22  15  75 W5        29.94F
JAFFREY        CLEAR     21  12  68 S5        30.00F
KEENE          CLEAR     23  18  80 CALM      30.02S
LEBANON        PTCLDY    28  16  60 CALM      29.98F
MT WASHINGTON  MOCLDY    16  -8  35 W36G43      N/A  WCI  -6
$$

VTZ005-007-008-300600-
VERMONT

CITY           SKY/WX    TMP DP  RH WIND       PRES   REMARKS
ST JOHNSBURY     N/A     31  10  41 MISG      29.93F
MONTPELIER     CLOUDY    29  11  47 S10       29.95F WCI  20
BURLINGTON     CLOUDY    36   8  31 S16G24    29.90F
$$

MAZ007-012-024-CTZ003-RIZ002-NYZ038-NYZ072-300600-
SOUTHERN NEW ENGLAND AND NY

CITY           SKY/WX    TMP DP  RH WIND       PRES   REMARKS
BOSTON         CLEAR     32  19  58 SW9       30.08F
WORCESTER      CLEAR     27   8  44 SW10      30.01F WCI  17
NANTUCKET      CLEAR     32  22  66 SW13      30.13S
PROVIDENCE     CLEAR     32  19  58 W8        30.11S
HARTFORD       MOCLDY    31  14  49 S9        30.05F
ALBANY         CLOUDY    34   9  35 S10       30.00F
NEW YORK CITY  MOCLDY    39  13  34 SW13      30.11F
$$

ANZ081-ANZ082-ANZ150-NHZ014-MEZ023>029-300600-
COASTAL MARINE OBSERVATIONS

STATION/POSITION TIME  TEMP    WIND        PRES    WAVE
                       AIR SEA DIR/SP/G            HT/PER
                 (UTC) (F)     (DEG/KT/KT) (MB)    (FT/S)
MOUNT DESERT ROC 0500   35                 1016.4F
MATINICUS ROCK   0500   36     210/ 22/ 25 1016.6F
WELLS            0400   32     230/  4/  5 1016.6F
ISLE OF SHOALS   0500   34     220/ 16/ 17 1016.8F
JEFFREYS LEDGE   0421      40                N/A     6/10
CASHES LEDGE BUO 0450   36 38              1017.3F   5/11
$$

.............KEY..............
   WCI - WIND CHILL
   TC  - TEMPERATURE IN CELSIUS
   VSB - VISIBILITY IN MILES
   HX  - HEAT INDEX
   FAIR- INDICATES FEW OR NO CLOUDS BELOW 12,000 FT, WITH NO
         SIGNIFICANT WEATHER AND/OR OBSTRUCTIONS TO VISIBILITY.




USA.gov is the U.S. government's official web portal to all federal, state and local government web resources and services.